Regional Weather Roundup
Issued by NWS Charleston, SC

Current Version | Previous Version | Graphics & Text | Print | Product List | Glossary On
Versions: 1 2 3 4 5 6 7 8 9 10 11 12 13 14 15 16 17 18 19 20 21 22 23 24 25 26 27 28 29 30 31 32 33 34 35 36 37 38 39 40 41 42 43 44 45 46 47 48 49 50
000
ASUS42 KCHS 190210
RWRCHS

REGIONAL WEATHER ROUNDUP
NATIONAL WEATHER SERVICE CHARLESTON SC
1000 PM EDT FRI APR 18 2014

NOTE: "FAIR" INDICATES FEW OR NO CLOUDS BELOW 12,000 FEET WITH NO
SIGNIFICANT WEATHER AND/OR OBSTRUCTIONS TO VISIBILITY.

NOT ALL STATIONS ARE QUALITY CONTROLLED BY THE NATIONAL
WEATHER SERVICE. USE DATA WITH CAUTION...ESPECIALLY
DEWPOINT OBSERVATIONS.

SCZ027-030-031-034>040-042>050-190300-
...SOUTH CAROLINA...

CITY           SKY/WX    TMP DP  RH WIND       PRES   REMARKS
N CHARLESTON   HVY RAIN  59  56  89 E20       30.05S FOG
WATERFRONT PRK   N/A     59 N/A N/A MISG        N/A
FORT JOHNSON   NOT AVBL
MOUNT PLEASANT NOT AVBL
JOHNS ISLAND   HVY RAIN  57  57 100 NE24G33   30.03S
PINOPOLIS      NOT AVBL
MONCKS CORNER  HVY RAIN  57  57 100 NE10      30.08R
SUMMERVILLE    RAIN      55  55 100 N10       30.06R
BEAUFORT MCAS  LGT RAIN  59  57  93 E14       30.01F
BEAUFORT ARPT  LGT RAIN  59  59 100 NE24      30.01F
HILTON HEAD IS NOT AVBL
GEORGETOWN     NOT AVBL
WALTERBORO     HVY RAIN  55 N/A N/A NE3       30.08R
ORANGEBURG     HVY RAIN  54  51  90 N9        30.10S FOG
BARNWELL       RAIN      54  52  94 NE20G26   30.06F
AIKEN          LGT RAIN  52  52 100 NE14G25   30.13F
MANNING        CLOUDY    55 N/A N/A NE10G22   30.08F
KINGSTREE      NOT AVBL
COLUMBIA       LGT RAIN  53  51  93 N12       30.15R FOG
SUMTER         HVY RAIN  53  52  95 NE21G26   30.10F FOG
FLORENCE       RAIN      55  53  93 NE15G24   30.16F FOG
MYRTLE BEACH   LGT RAIN  55  54  94 NE18G25   30.11F FOG
N MYRTLE BEACH LGT RAIN  56  54  93 NE16      30.14F

$$

GAZ063-065-086>088-099>101-113>116-118-119-134-136>141-150-190300-
...GEORGIA...

CITY           SKY/WX    TMP DP  RH WIND       PRES   REMARKS
SAVANNAH ARPT  LGT RAIN  59  57  93 VRB6      29.97S
HUNTER AAF     LGT RAIN  60  59  98 NE12G21   29.95S
FORT STEWART   HVY RAIN  57  57 100 NW9       29.96R
STATESBORO     NOT AVBL
SYLVANIA       RAIN      56  53  91 NE14G20   30.01S
CLAXTON        RAIN      55  55 100 CALM      30.01R
THOMSON        CLOUDY    50  50 100 N10G18    30.13F
AUGUSTA-BUSH   RAIN      53  49  86 NE17G25   30.06F FOG
AUGUSTA-DANIEL RAIN      52  50  93 NE20G31   30.08F FOG
SWAINSBORO     RAIN      52  52 100 NE13      30.01S
VIDALIA        HVY RAIN  54  54 100 NE12G20   29.98F
ALMA           LGT RAIN  56  53  90 VRB5      29.95S
WAYCROSS       NOT AVBL
JESUP          RAIN      55  55 100 NE6       29.95F
BRUNSWICK      CLOUDY    61  59  94 CALM      29.95F
SAINT SIMONS   LGT RAIN  61  60  97 NE8       29.94S

$$

SCZ027-028-034-036>038-045-046-048>050-GAZ119-141-190300-
...LAKE AND SUPPLEMENTAL COASTAL OBSERVATIONS...

STATION/POSITION TIME  TEMP    WIND        PRES    WAVE   SWELL
                       AIR SEA DIR/SP/G            HT/PER HT/PER/DIR
                 (UTC) (F)     (DEG/KT/KT) (MB)    (FT/S) (FT/S/D)
UPR LAKE MARION  NOT AVBL
WINYAH BAY       0100   58      40/ 16     1020.0S
LAKE MURRAY      0100   52      20/  3/  9 1021.0R
ACE BASIN NERRS  0100   58      40/  6     1016.0S
FORT PULASKI     0200   61 59   40/ 18/ 24 1015.3F
SAPELO ISLAND    0100   60      30/ 11     1014.0S

$$

ANZ835-935-AMZ111-154-330-350-352-354-374-450-454-472-190300-
...C-MAN AND BUOY OBSERVATIONS...

STATION/POSITION TIME  TEMP    WIND        PRES    WAVE   SWELL
                       AIR SEA DIR/SP/G            HT/PER HT/PER/DIR
                 (UTC) (F)     (DEG/KT/KT) (MB)    (FT/S) (FT/S/D)
FOLLY BEACH CMAN 0100   59      50/ 32/ 37 1017.3F
BUOY 41004       NOT AVBL
BUOY 41008       0200   65 65   60/  4/  6 1013.5F   8/ 8   7/ 90/ 8
5E ST. MARYS GA  0200      64                N/A     6/ 7   2/100/11
FRYING PAN BUOY  0200   60 65   40/ 27/ 31 1019.2F   8/ 7   3/110/ 9
BUOY 41025       NOT AVBL
CAPE LOOKOUT NC  0100   55      20/ 19/ 23 1022.9F
BUOY 41002       NOT AVBL
BUOY 41010       0200   76 76  140/ 19/ 23 1016.1F   7/10   5/ 40/10
BUOY 41012       NOT AVBL
ST AUGUSTINE FL  0200   66     180/  6/  7 1014.6S
CAPERS NEARSHORE NOT AVBL
FRIPP NEARSHORE  0100   59      50/ 21/ 27   N/A


$$


USA.gov is the U.S. government's official web portal to all federal, state and local government web resources and services.